Regional Weather Roundup
Issued by NWS Cleveland, OH

Home | Current Version | Previous Version | Graphics & Text | Print | Product List | Glossary On
Versions: 1 2 3 4 5 6 7 8 9 10 11 12 13 14 15 16 17 18 19 20 21 22 23 24 25 26 27 28 29 30 31 32 33 34 35 36 37 38 39 40 41 42 43 44 45 46 47 48 49 50
000
ASUS41 KCLE 220500
RWRCLE
OHIO REGIONAL WEATHER ROUNDUP
NATIONAL WEATHER SERVICE WILMINGTON, OH
100 AM EDT WED OCT 22 2014

NOTE: "FAIR" INDICATES FEW OR NO CLOUDS BELOW 12,000 FEET WITH NO
SIGNIFICANT WEATHER AND/OR OBSTRUCTIONS TO VISIBILITY.

OHZ001>008-015>018-024>027-034-035-043-044-220600-
   NORTHWEST OHIO

CITY           SKY/WX    TMP DP  RH WIND       PRES   REMARKS
DEFIANCE       CLOUDY    45  36  70 N7        30.22F
FINDLAY        CLOUDY    45  38  76 N8        30.18F
TOLEDO EXPRESS CLOUDY    44  36  73 N7        30.21S
TOLEDO METCALF CLOUDY    46  37  71 N8        30.21S
LIMA           CLOUDY    45  37  73 N8        30.19S
$$

OHZ009>014-019>023-028>033-038-089-220600-
   NORTHEAST OHIO

CITY           SKY/WX    TMP DP  RH WIND       PRES   REMARKS
CLE-HOPKINS    LGT RAIN  48  44  86 N10       30.14F
CLE-LAKEFRONT  CLOUDY    50  44  80 N15G22    30.11F
CUY CO. ARPT   NOT AVBL
LORAIN-ELYRIA  CLOUDY    47  43  86 N8        30.14S
ASHTABULA      LGT RAIN  46  44  93 N7        30.11S FOG
AKRON-CANTON   CLOUDY    48  44  86 N13       30.08S
WOOSTER        NOT AVBL
MANSFIELD      CLOUDY    44  44 100 NW9       30.13S
YOUNGSTOWN     LGT RAIN  47  44  90 N14       30.07R
$$

OHZ042-051>053-060>062-070>072-077>081-220600-
  SOUTHWEST OHIO

CITY           SKY/WX    TMP DP  RH WIND       PRES   REMARKS
CINC-COVINGTON CLOUDY    48  37  65 NE9       30.17S
CINC-LUNKEN    CLOUDY    48  37  65 N8        30.20S
HAMILTON       CLOUDY    48  37  65 N10       30.20S
DAYTON         NOT AVBL
WRIGHT-PAT AFB CLOUDY    45  39  78 N9        30.18S
DAYTON GENERAL CLOUDY    46  37  71 N8        30.17F
WILMINGTON     CLOUDY    45  37  73 N9        30.16F
$$

OHZ036-037-039>041-045>050-054>059-063>069-073>076-082>088-220600-
  CENTRAL AND SOUTHEAST OHIO

CITY           SKY/WX    TMP DP  RH WIND       PRES   REMARKS
COLUMBUS       CLOUDY    45  39  79 NW10      30.14S
OSU AIRPORT    CLOUDY    44  40  85 NW14      30.15S
BOLTON FIELD   NOT AVBL
RICKENBACK AFB NOT AVBL
NEWARK         CLOUDY    46  40  79 NW12      30.12S
MARION         CLOUDY    43  41  93 N12       30.16S FOG
LANCASTER      CLOUDY    46  40  79 NW8       30.14S
ZANESVILLE     CLOUDY    45  41  86 NW9       30.10S
NEW PHILLY     CLOUDY    48  46  93 NW6       30.09S
$$



USA.gov is the U.S. government's official web portal to all federal, state and local government web resources and services.